Content
SEND FEEDBACK

Daily
Averages
Monthly
Summary
United States of America

MATTOON, ILLINOIS


Home > North America > United States > Illinois
Elevation: 721 feet     Latitude: 39 28N     Longitude: 088 17W

WEATHER
 
SELECT A DAY
Number of Records: 182,191;   Date Range: 12/4/97 - 10/20/14
 
SHARE

PRINT THIS DATA

[ ← Previous Day ]
WEATHER ALMANAC - JANUARY 31, 2013
[ Next Day → ]
[ °C ]   °F
Weather ElementAverageHighLow
Temperature22.1 °F28.9 °F (12:53 pm)8.1 °F (10:53 pm)
Dewpoint13.8 °F21.2 °F (10:23 am)-2 °F (10:53 pm)
Humidity70.5 %81 % (9:53 am)64 % (12:53 pm)
Barometer30.01 in30.31 in (11:53 pm)29.86 in (1:53 am)
Wind Speed19.1 mph29.9 mph (5:53 pm)
Wind Gust38 mph (5:53 pm)
Weather ElementAverage
Visibility7.7 mi
Wind DirectionWNW (280 °)

Weather ElementTotal
Precipitation---
Heating Degree Days46.5 (Base 65)
Averaged from 34 records on January 31, 2013
WEATHER CONDITIONS BREAKOUT
WIND DIRECTION BREAKOUT
WEATHER BY HOUR - JANUARY 31, 2013
[ °C ]   °F
Local TimeTemperatureDewpointHumidityBarometerVisibilityWind DirectionWind SpeedGust SpeedPrecipitationEventsConditions
1:53 AM24.1 °F15.1 °F69 %29.86 in10.0 miWest (280°)24.2 mph31.1 mphOvercast
2:53 AM21.9 °F14.0 °F72 %29.88 in10.0 miWNW (290°)20.7 mph31.1 mphPartly Cloudy
3:53 AM21.9 °F15.1 °F75 %29.88 in10.0 miWest (260°)12.7 mph21.9 mphMostly Cloudy
4:53 AM24.1 °F14.0 °F65 %29.88 in10.0 miWest (260°)11.5 mph23.0 mphOvercast
5:53 AM25.0 °F15.1 °F66 %29.88 in10.0 miWest (270°)16.1 mph24.2 mphOvercast
6:53 AM25.0 °F15.1 °F66 %29.91 in10.0 miWest (260°)12.7 mph24.2 mphOvercast
7:53 AM26.1 °F16.0 °F66 %29.93 in10.0 miWSW (250°)10.4 mph24.2 mphOvercast
8:53 AM27.0 °F17.1 °F66 %29.95 in10.0 miWest (260°)13.8 mph23.0 mph0.00 inOvercast
9:12 AM26.6 °F19.4 °F74 %29.92 in1.8 miWest (270°)15.0 mph23.0 mph0.00 inSnowLight Snow
9:25 AM26.6 °F19.4 °F74 %29.93 in3.0 miWest (270°)16.1 mph24.2 mph0.00 inSnowLight Snow
9:34 AM26.6 °F17.6 °F69 %29.93 in9.0 miWest (270°)15.0 mph0.00 inOvercast
9:47 AM26.6 °F19.4 °F74 %29.94 in1.8 miWest (270°)15.0 mph23.0 mph0.00 inSnowLight Snow
9:53 AM26.1 °F21.0 °F81 %29.97 in1.8 miWest (260°)15.0 mph20.7 mph0.00 inSnowLight Snow
9:56 AM26.6 °F19.4 °F74 %29.94 in3.0 miWest (260°)12.7 mph20.7 mph0.00 inSnowLight Snow
10:14 AM26.6 °F19.4 °F74 %29.95 in2.5 miWest (270°)16.1 mph21.9 mph0.00 inSnowLight Snow
10:23 AM26.6 °F21.2 °F80 %29.95 in4.0 miWest (270°)16.1 mph21.9 mph0.00 inSnowLight Snow
10:38 AM26.6 °F21.2 °F80 %29.96 in1.8 miWSW (250°)10.4 mph0.00 inSnowLight Snow
10:53 AM27.0 °F19.9 °F75 %29.99 in2.5 miWest (270°)18.4 mph25.3 mph0.00 inSnowLight Snow
11:00 AM26.6 °F19.4 °F74 %29.96 in3.0 miWest (270°)15.0 mph25.3 mph0.00 inSnowLight Snow
11:21 AM26.6 °F19.4 °F74 %29.96 in8.0 miWest (270°)17.3 mph24.2 mph0.00 inSnowLight Snow
11:53 AM28.0 °F19.9 °F72 %29.98 in10.0 miWest (280°)17.3 mph24.2 mph0.00 inSnowLight Snow
12:53 PM28.9 °F18.0 °F64 %29.96 in10.0 miWest (270°)16.1 mph28.8 mph0.00 inOvercast
2:53 PM27.0 °F18.0 °F69 %29.98 in10.0 miWNW (300°)23.0 mph27.6 mphOvercast
3:53 PM24.1 °F14.0 °F65 %30.01 in10.0 miWNW (300°)25.3 mph29.9 mphOvercast
4:53 PM19.9 °F10.9 °F68 %30.05 in10.0 miNW (310°)26.5 mph33.4 mph0.00 inOvercast
5:53 PM16.0 °F7.0 °F68 %30.10 in10.0 miNW (310°)29.9 mph38.0 mphOvercast
6:43 PM15.8 °F8.6 °F73 %30.10 in10.0 miWNW (300°)25.3 mph32.2 mph0.00 inOvercast
6:53 PM14.0 °F7.0 °F74 %30.14 in9.0 miWNW (300°)24.2 mph35.7 mph0.00 inSnowLight Snow
7:53 PM12.9 °F3.0 °F65 %30.17 in10.0 miNW (310°)25.3 mph33.4 mph0.00 inMostly Cloudy
8:00 PM12.2 °F3.2 °F67 %30.14 in10.0 miWNW (300°)26.5 mph34.5 mphMostly Cloudy
8:53 PM10.9 °F1.0 °F64 %30.21 in10.0 miWNW (300°)27.6 mph35.7 mph0.00 inScattered Clouds
9:53 PM10.0 °F0.0 °F64 %30.25 in10.0 miNW (310°)23.0 mph36.8 mphPartly Cloudy
10:53 PM8.1 °F-2.0 °F64 %30.28 in10.0 miWNW (300°)27.6 mph33.4 mphClear
11:53 PM8.1 °F1.0 °F73 %30.31 in10.0 miWNW (300°)27.6 mph34.5 mphClear
Hourly data recorded from KMTO, located miles away from Mattoon, Illinois







STORIES FROM OUR PARTNERS